Location: *
(49.0044°N, 9.5056°E)
Time: 07:58:00
(UTC+00:00)

Cosmos 2181 Rocket - Pass Details

Date: 22 September 2019
Orbit: 953 x 1014 km, 82.9° (Epoch: 13 October)

Event Time Altitude Azimuth Distance (km) Brightness Sun altitude
Rises 18:31:05 0° 171° (S) 3,660 6.8 -12.2°
Reaches altitude 10° 18:33:37 10° 167° (SSE) 2,725 6.1 -12.6°
Maximum altitude 18:39:41 55° 92° (E) 1,181 4.1 -13.6°
Drops below altitude 10° 18:45:52 10° 17° (NNE) 2,784 6.4 -14.6°
Sets 18:48:28 0° 13° (NNE) 3,745 7.1 -15.0°
